TimeCDT,TemperatureF,Dew PointF,Humidity,Sea Level PressureIn,VisibilityMPH,Wind Direction,Wind SpeedMPH,Gust SpeedMPH,PrecipitationIn,Events,Conditions,WindDirDegrees,DateUTC
12:13 AM,33.8,28.4,81,30.01,10.0,Calm,Calm,-,N/A,,Clear,0,2013-06-03 05:13:00
12:33 AM,33.8,28.4,81,30.02,10.0,Calm,Calm,-,N/A,,Clear,0,2013-06-03 05:33:00
12:53 AM,32.0,28.4,87,30.01,10.0,Calm,Calm,-,N/A,,Clear,0,2013-06-03 05:53:00
1:13 AM,32.0,26.6,80,30.02,10.0,Calm,Calm,-,N/A,,Clear,0,2013-06-03 06:13:00
1:33 AM,32.0,28.4,87,30.02,10.0,Calm,Calm,-,N/A,,Clear,0,2013-06-03 06:33:00
1:53 AM,30.2,26.6,86,30.02,10.0,Calm,Calm,-,N/A,,Clear,0,2013-06-03 06:53:00
2:13 AM,30.2,26.6,86,30.02,10.0,Calm,Calm,-,N/A,,Clear,0,2013-06-03 07:13:00
2:33 AM,30.2,26.6,86,30.02,10.0,Calm,Calm,-,N/A,,Clear,0,2013-06-03 07:33:00
2:53 AM,30.2,26.6,86,30.02,10.0,Calm,Calm,-,N/A,,Clear,0,2013-06-03 07:53:00
3:13 AM,28.4,26.6,93,30.02,10.0,Calm,Calm,-,N/A,,Clear,0,2013-06-03 08:13:00
3:33 AM,28.4,26.6,93,30.02,10.0,Calm,Calm,-,N/A,,Clear,0,2013-06-03 08:33:00
3:53 AM,28.4,24.8,86,30.03,10.0,Calm,Calm,-,N/A,,Clear,0,2013-06-03 08:53:00
4:13 AM,28.4,24.8,86,30.03,10.0,Calm,Calm,-,N/A,,Clear,0,2013-06-03 09:13:00
4:33 AM,28.4,24.8,86,30.03,10.0,Calm,Calm,-,N/A,,Clear,0,2013-06-03 09:33:00
4:53 AM,28.4,24.8,86,30.03,10.0,Calm,Calm,-,N/A,,Clear,0,2013-06-03 09:53:00
5:13 AM,30.2,26.6,86,30.04,10.0,Calm,Calm,-,N/A,,Clear,0,2013-06-03 10:13:00
5:33 AM,30.2,26.6,86,30.04,10.0,Calm,Calm,-,N/A,,Clear,0,2013-06-03 10:33:00
5:53 AM,30.2,26.6,86,30.05,10.0,Calm,Calm,-,N/A,,Clear,0,2013-06-03 10:53:00
6:13 AM,33.8,30.2,87,30.06,10.0,Calm,Calm,-,N/A,,Clear,0,2013-06-03 11:13:00
6:33 AM,37.4,32.0,81,30.06,10.0,Calm,Calm,-,N/A,,Clear,0,2013-06-03 11:33:00
6:53 AM,42.8,33.8,70,30.06,10.0,Calm,Calm,-,N/A,,Clear,0,2013-06-03 11:53:00
7:13 AM,44.6,30.2,57,30.06,10.0,Calm,Calm,-,N/A,,Clear,0,2013-06-03 12:13:00
7:33 AM,46.4,28.4,50,30.07,10.0,Calm,Calm,-,N/A,,Clear,0,2013-06-03 12:33:00
7:53 AM,48.2,28.4,46,30.07,10.0,Calm,Calm,-,N/A,,Clear,0,2013-06-03 12:53:00
8:13 AM,51.8,28.4,41,30.08,10.0,ENE,3.5,-,N/A,,Clear,60,2013-06-03 13:13:00
8:33 AM,51.8,28.4,41,30.08,10.0,Calm,Calm,-,N/A,,Clear,0,2013-06-03 13:33:00
8:53 AM,51.8,28.4,41,30.08,10.0,Calm,Calm,-,N/A,,Clear,0,2013-06-03 13:53:00
9:13 AM,53.6,28.4,38,30.08,10.0,Calm,Calm,-,N/A,,Clear,0,2013-06-03 14:13:00
9:33 AM,55.4,28.4,36,30.08,10.0,Calm,Calm,-,N/A,,Clear,0,2013-06-03 14:33:00
9:53 AM,53.6,26.6,35,30.08,10.0,SSE,6.9,-,0.01,,Clear,150,2013-06-03 14:53:00
10:13 AM,53.6,28.4,38,30.08,10.0,SSW,3.5,-,0.01,,Clear,200,2013-06-03 15:13:00
10:33 AM,55.4,26.6,33,30.08,10.0,Calm,Calm,-,0.01,,Clear,0,2013-06-03 15:33:00
10:53 AM,55.4,28.4,36,30.08,10.0,SSE,8.1,-,N/A,,Clear,160,2013-06-03 15:53:00
11:13 AM,55.4,28.4,36,30.08,10.0,South,9.2,-,N/A,,Clear,180,2013-06-03 16:13:00
11:33 AM,53.6,26.6,35,30.08,10.0,SE,6.9,-,N/A,,Clear,140,2013-06-03 16:33:00
11:53 AM,55.4,28.4,36,30.08,10.0,SSE,8.1,-,N/A,,Clear,150,2013-06-03 16:53:00
12:13 PM,55.4,28.4,36,30.09,10.0,SSE,5.8,-,N/A,,Clear,150,2013-06-03 17:13:00
12:33 PM,55.4,30.2,38,30.08,10.0,South,8.1,-,N/A,,Clear,180,2013-06-03 17:33:00
12:53 PM,57.2,28.4,33,30.07,10.0,Calm,Calm,-,N/A,,Clear,0,2013-06-03 17:53:00
1:13 PM,57.2,30.2,36,30.07,10.0,Calm,Calm,-,N/A,,Clear,0,2013-06-03 18:13:00
1:33 PM,59.0,28.4,31,30.07,10.0,South,8.1,-,N/A,,Clear,190,2013-06-03 18:33:00
1:53 PM,57.2,26.6,31,30.07,10.0,SSE,8.1,-,N/A,,Clear,160,2013-06-03 18:53:00
2:13 PM,57.2,26.6,31,30.06,10.0,South,6.9,-,N/A,,Clear,170,2013-06-03 19:13:00
2:33 PM,57.2,26.6,31,30.06,10.0,South,5.8,-,N/A,,Clear,180,2013-06-03 19:33:00
2:53 PM,57.2,26.6,31,30.06,10.0,South,5.8,-,N/A,,Clear,190,2013-06-03 19:53:00
3:13 PM,57.2,28.4,33,30.07,10.0,South,10.4,-,N/A,,Clear,190,2013-06-03 20:13:00
3:33 PM,59.0,26.6,29,30.07,10.0,SW,4.6,-,N/A,,Clear,220,2013-06-03 20:33:00
3:53 PM,60.8,26.6,27,30.06,10.0,South,8.1,-,N/A,,Clear,170,2013-06-03 20:53:00
4:13 PM,60.8,24.8,25,30.05,10.0,SSE,6.9,-,N/A,,Clear,160,2013-06-03 21:13:00
4:33 PM,57.2,24.8,29,30.05,10.0,South,5.8,-,N/A,,Clear,180,2013-06-03 21:33:00
4:53 PM,59.0,24.8,27,30.06,10.0,SSE,6.9,-,N/A,,Clear,160,2013-06-03 21:53:00
5:13 PM,57.2,23.0,27,30.05,10.0,South,4.6,-,N/A,,Clear,170,2013-06-03 22:13:00
5:33 PM,57.2,23.0,27,30.05,10.0,South,4.6,-,N/A,,Clear,170,2013-06-03 22:33:00
5:53 PM,57.2,21.2,25,30.05,10.0,Calm,Calm,-,N/A,,Clear,0,2013-06-03 22:53:00
6:13 PM,57.2,21.2,25,30.04,10.0,Calm,Calm,-,N/A,,Clear,0,2013-06-03 23:13:00
6:33 PM,55.4,21.2,26,30.04,10.0,Calm,Calm,-,N/A,,Clear,0,2013-06-03 23:33:00
6:53 PM,55.4,26.6,33,30.05,10.0,Calm,Calm,-,N/A,,Clear,0,2013-06-03 23:53:00
7:13 PM,55.4,24.8,31,30.05,10.0,Calm,Calm,-,N/A,,Clear,0,2013-06-04 00:13:00
7:33 PM,51.8,26.6,38,30.05,10.0,Calm,Calm,-,N/A,,Clear,0,2013-06-04 00:33:00
7:53 PM,51.8,26.6,38,30.06,10.0,Calm,Calm,-,N/A,,Clear,0,2013-06-04 00:53:00
8:13 PM,50.0,24.8,37,30.06,10.0,Calm,Calm,-,N/A,,Clear,0,2013-06-04 01:13:00
8:33 PM,50.0,26.6,40,30.07,10.0,Calm,Calm,-,N/A,,Clear,0,2013-06-04 01:33:00
8:53 PM,48.2,28.4,46,30.08,10.0,Calm,Calm,-,N/A,,Clear,0,2013-06-04 01:53:00
9:13 PM,46.4,28.4,50,30.09,10.0,Calm,Calm,-,N/A,,Clear,0,2013-06-04 02:13:00
9:33 PM,46.4,30.2,53,30.09,10.0,Calm,Calm,-,N/A,,Clear,0,2013-06-04 02:33:00
9:53 PM,44.6,30.2,57,30.10,10.0,Calm,Calm,-,N/A,,Clear,0,2013-06-04 02:53:00
10:13 PM,44.6,32.0,61,30.10,10.0,Calm,Calm,-,N/A,,Clear,0,2013-06-04 03:13:00
10:33 PM,44.6,33.8,66,30.10,10.0,Calm,Calm,-,N/A,,Clear,0,2013-06-04 03:33:00
10:53 PM,42.8,32.0,66,30.11,10.0,Calm,Calm,-,N/A,,Clear,0,2013-06-04 03:53:00
11:13 PM,41.0,33.8,76,30.10,10.0,Calm,Calm,-,N/A,,Clear,0,2013-06-04 04:13:00
11:33 PM,41.0,30.2,65,30.11,10.0,Calm,Calm,-,N/A,,Clear,0,2013-06-04 04:33:00
11:53 PM,41.0,32.0,70,30.11,10.0,Calm,Calm,-,N/A,,Clear,0,2013-06-04 04:53:00